Year,Month,Day,Hour,Minute,Value (Times are PST for temperature in C)
2021,06,07,00,00,8.00
2021,06,07,00,01,8.00
2021,06,07,00,02,8.00
2021,06,07,00,03,8.00
2021,06,07,00,04,8.00
2021,06,07,00,05,8.00
2021,06,07,00,06,8.00
2021,06,07,00,07,8.00
2021,06,07,00,08,8.00
2021,06,07,00,09,8.00
2021,06,07,00,10,8.10
2021,06,07,00,11,8.10
2021,06,07,00,12,8.10
2021,06,07,00,13,8.10
2021,06,07,00,14,8.20
2021,06,07,00,15,8.20
2021,06,07,00,16,8.20
2021,06,07,00,17,8.20
2021,06,07,00,18,8.20
2021,06,07,00,19,8.20
2021,06,07,00,20,8.20
2021,06,07,00,21,8.30
2021,06,07,00,22,8.30
2021,06,07,00,23,8.30
2021,06,07,00,24,8.30
2021,06,07,00,25,8.30
2021,06,07,00,26,8.20
2021,06,07,00,27,8.20
2021,06,07,00,28,8.20
2021,06,07,00,29,8.20
2021,06,07,00,30,8.20
2021,06,07,00,31,8.20
2021,06,07,00,32,8.20
2021,06,07,00,33,8.20
2021,06,07,00,34,8.20
2021,06,07,00,35,8.20
2021,06,07,00,36,8.10
2021,06,07,00,37,8.00
2021,06,07,00,38,8.00
2021,06,07,00,39,8.00
2021,06,07,00,40,7.90
2021,06,07,00,41,7.90
2021,06,07,00,42,7.80
2021,06,07,00,43,7.80
2021,06,07,00,44,7.80
2021,06,07,00,45,7.80
2021,06,07,00,46,7.80
2021,06,07,00,47,7.80
2021,06,07,00,48,7.80
2021,06,07,00,49,7.80
2021,06,07,00,50,7.80
2021,06,07,00,51,7.90
2021,06,07,00,52,7.90
2021,06,07,00,53,7.90
2021,06,07,00,54,7.90
2021,06,07,00,55,7.90
2021,06,07,00,56,7.90
2021,06,07,00,57,7.90
2021,06,07,00,58,7.90
2021,06,07,00,59,7.90
2021,06,07,01,00,7.90
2021,06,07,01,01,7.90
2021,06,07,01,02,7.90
2021,06,07,01,03,7.90
2021,06,07,01,04,7.90
2021,06,07,01,05,7.80
2021,06,07,01,06,7.80
2021,06,07,01,07,7.80
2021,06,07,01,08,7.80
2021,06,07,01,09,7.80
2021,06,07,01,10,7.80
2021,06,07,01,11,7.80
2021,06,07,01,12,7.70
2021,06,07,01,13,7.70
2021,06,07,01,14,7.60
2021,06,07,01,15,7.60
2021,06,07,01,16,7.50
2021,06,07,01,17,7.50
2021,06,07,01,18,7.40
2021,06,07,01,19,7.40
2021,06,07,01,20,7.30
2021,06,07,01,21,7.30
2021,06,07,01,22,7.30
2021,06,07,01,23,7.20
2021,06,07,01,24,7.20
2021,06,07,01,25,7.10
2021,06,07,01,26,7.10
2021,06,07,01,27,7.00
2021,06,07,01,28,7.00
2021,06,07,01,29,6.90
2021,06,07,01,30,6.90
2021,06,07,01,31,6.80
2021,06,07,01,32,6.80
2021,06,07,01,33,6.80
2021,06,07,01,34,6.80
2021,06,07,01,35,6.80
2021,06,07,01,36,6.70
2021,06,07,01,37,6.70
2021,06,07,01,38,6.70
2021,06,07,01,39,6.60
2021,06,07,01,40,6.60
2021,06,07,01,41,6.60
2021,06,07,01,42,6.60
2021,06,07,01,43,6.60
2021,06,07,01,44,6.60
2021,06,07,01,45,6.60
2021,06,07,01,46,6.60
2021,06,07,01,47,6.60
2021,06,07,01,48,6.60
2021,06,07,01,49,6.60
2021,06,07,01,50,6.50
2021,06,07,01,51,6.40
2021,06,07,01,52,6.40
2021,06,07,01,53,6.40
2021,06,07,01,54,6.40
2021,06,07,01,55,6.40
2021,06,07,01,56,6.40
2021,06,07,01,57,6.40
2021,06,07,01,58,6.30
2021,06,07,01,59,6.30
2021,06,07,02,00,6.30
2021,06,07,02,01,6.30
2021,06,07,02,02,6.30
2021,06,07,02,03,6.30
2021,06,07,02,04,6.30
2021,06,07,02,05,6.30
2021,06,07,02,06,6.20
2021,06,07,02,07,6.20
2021,06,07,02,08,6.20
2021,06,07,02,09,6.20
2021,06,07,02,10,6.20
2021,06,07,02,11,6.20
2021,06,07,02,12,6.20
2021,06,07,02,13,6.30
2021,06,07,02,14,6.30
2021,06,07,02,15,6.30
2021,06,07,02,16,6.30
2021,06,07,02,17,6.30
2021,06,07,02,18,6.30
2021,06,07,02,19,6.30
2021,06,07,02,20,6.30
2021,06,07,02,21,6.30
2021,06,07,02,22,6.30
2021,06,07,02,23,6.30
2021,06,07,02,24,6.30
2021,06,07,02,25,6.30
2021,06,07,02,26,6.30
2021,06,07,02,27,6.30
2021,06,07,02,28,6.30
2021,06,07,02,29,6.40
2021,06,07,02,30,6.40
2021,06,07,02,31,6.40
2021,06,07,02,32,6.40
2021,06,07,02,33,6.40
2021,06,07,02,34,6.40
2021,06,07,02,35,6.40
2021,06,07,02,36,6.40
2021,06,07,02,37,6.40
2021,06,07,02,38,6.40
2021,06,07,02,39,6.40
2021,06,07,02,40,6.40
2021,06,07,02,41,6.40
2021,06,07,02,42,6.40
2021,06,07,02,43,6.40
2021,06,07,02,44,6.40
2021,06,07,02,45,6.40
2021,06,07,02,46,6.40
2021,06,07,02,47,6.30
2021,06,07,02,48,6.30
2021,06,07,02,49,6.30
2021,06,07,02,50,6.30
2021,06,07,02,51,6.30
2021,06,07,02,52,6.30
2021,06,07,02,53,6.30
2021,06,07,02,54,6.30
2021,06,07,02,55,6.30
2021,06,07,02,56,6.30
2021,06,07,02,57,6.30
2021,06,07,02,58,6.30
2021,06,07,02,59,6.30
2021,06,07,03,00,6.30
2021,06,07,03,01,6.30
2021,06,07,03,02,6.30
2021,06,07,03,03,6.30
2021,06,07,03,04,6.30
2021,06,07,03,05,6.30
2021,06,07,03,06,6.30
2021,06,07,03,07,6.20
2021,06,07,03,08,6.20
2021,06,07,03,09,6.20
2021,06,07,03,10,6.20
2021,06,07,03,11,6.20
2021,06,07,03,12,6.20
2021,06,07,03,13,6.20
2021,06,07,03,14,6.20
2021,06,07,03,15,6.20
2021,06,07,03,16,6.20
2021,06,07,03,17,6.20
2021,06,07,03,18,6.20
2021,06,07,03,19,6.20
2021,06,07,03,20,6.20
2021,06,07,03,21,6.10
2021,06,07,03,22,6.10
2021,06,07,03,23,6.10
2021,06,07,03,24,6.10
2021,06,07,03,25,6.10
2021,06,07,03,26,6.10
2021,06,07,03,27,6.10
2021,06,07,03,28,6.10
2021,06,07,03,29,6.00
2021,06,07,03,30,6.00
2021,06,07,03,31,6.00
2021,06,07,03,32,5.90
2021,06,07,03,33,5.90
2021,06,07,03,34,5.90
2021,06,07,03,35,5.90
2021,06,07,03,36,5.80
2021,06,07,03,37,5.80
2021,06,07,03,38,5.70
2021,06,07,03,39,5.70
2021,06,07,03,40,5.70
2021,06,07,03,41,5.70
2021,06,07,03,42,5.70
2021,06,07,03,43,5.60
2021,06,07,03,44,5.60
2021,06,07,03,45,5.60
2021,06,07,03,46,5.50
2021,06,07,03,47,5.50
2021,06,07,03,48,5.50
2021,06,07,03,49,5.50
2021,06,07,03,50,5.50
2021,06,07,03,51,5.50
2021,06,07,03,52,5.50
2021,06,07,03,53,5.50
2021,06,07,03,54,5.50
2021,06,07,03,55,5.50
2021,06,07,03,56,5.50
2021,06,07,03,57,5.50
2021,06,07,03,58,5.50
2021,06,07,03,59,5.50
2021,06,07,04,00,5.60
2021,06,07,04,01,5.60
2021,06,07,04,02,5.60
2021,06,07,04,03,5.60
2021,06,07,04,04,5.60
2021,06,07,04,05,5.60
2021,06,07,04,06,5.60
2021,06,07,04,07,5.70
2021,06,07,04,08,5.70
2021,06,07,04,09,5.70
2021,06,07,04,10,5.70
2021,06,07,04,11,5.70
2021,06,07,04,12,5.60
2021,06,07,04,13,5.60
2021,06,07,04,14,5.60
2021,06,07,04,15,5.60
2021,06,07,04,16,5.50
2021,06,07,04,17,5.50
2021,06,07,04,18,5.50
2021,06,07,04,19,5.50
2021,06,07,04,20,5.40
2021,06,07,04,21,5.40
2021,06,07,04,22,5.30
2021,06,07,04,23,5.30
2021,06,07,04,24,5.30
2021,06,07,04,25,5.30
2021,06,07,04,26,5.30
2021,06,07,04,27,5.30
2021,06,07,04,28,5.20
2021,06,07,04,29,5.20
2021,06,07,04,30,5.20
2021,06,07,04,31,5.10
2021,06,07,04,32,5.10
2021,06,07,04,33,5.10
2021,06,07,04,34,5.10
2021,06,07,04,35,5.10
2021,06,07,04,36,5.10
2021,06,07,04,37,5.10
2021,06,07,04,38,5.10
2021,06,07,04,39,5.10
2021,06,07,04,40,5.10
2021,06,07,04,41,5.10
2021,06,07,04,42,5.10
2021,06,07,04,43,5.20
2021,06,07,04,44,5.20
2021,06,07,04,45,5.20
2021,06,07,04,46,5.10
2021,06,07,04,47,5.10
2021,06,07,04,48,5.10
2021,06,07,04,49,5.10
2021,06,07,04,50,5.10
2021,06,07,04,51,5.10
2021,06,07,04,52,5.10
2021,06,07,04,53,5.10
2021,06,07,04,54,5.10
2021,06,07,04,55,5.10
2021,06,07,04,56,5.00
2021,06,07,04,57,4.90
2021,06,07,04,58,4.90
2021,06,07,04,59,4.90
2021,06,07,05,00,4.90
2021,06,07,05,01,4.90
2021,06,07,05,02,4.90
2021,06,07,05,03,4.90
2021,06,07,05,04,4.90
2021,06,07,05,05,4.90
2021,06,07,05,06,4.90
2021,06,07,05,07,4.90
2021,06,07,05,08,4.90
2021,06,07,05,09,4.90
2021,06,07,05,10,4.90
2021,06,07,05,11,4.90
2021,06,07,05,12,4.90
2021,06,07,05,13,4.90
2021,06,07,05,14,4.90
2021,06,07,05,15,4.90
2021,06,07,05,16,4.80
2021,06,07,05,17,4.80
2021,06,07,05,18,4.80
2021,06,07,05,19,4.80
2021,06,07,05,20,4.80
2021,06,07,05,21,4.80
2021,06,07,05,22,4.80
2021,06,07,05,23,4.80
2021,06,07,05,24,4.70
2021,06,07,05,25,4.70
2021,06,07,05,26,4.70
2021,06,07,05,27,4.70
2021,06,07,05,28,4.70
2021,06,07,05,29,4.70
2021,06,07,05,30,4.70
2021,06,07,05,31,4.70
2021,06,07,05,32,4.70
2021,06,07,05,33,4.70
2021,06,07,05,34,4.70
2021,06,07,05,35,4.70
2021,06,07,05,36,4.80
2021,06,07,05,37,4.80
2021,06,07,05,38,4.80
2021,06,07,05,39,4.80
2021,06,07,05,40,4.80
2021,06,07,05,41,4.80
2021,06,07,05,42,4.90
2021,06,07,05,43,4.90
2021,06,07,05,44,4.90
2021,06,07,05,45,4.90
2021,06,07,05,46,4.90
2021,06,07,05,47,5.00
2021,06,07,05,48,5.10
2021,06,07,05,49,5.10
2021,06,07,05,50,5.10
2021,06,07,05,51,5.10
2021,06,07,05,52,5.10
2021,06,07,05,53,5.10
2021,06,07,05,54,5.20
2021,06,07,05,55,5.20
2021,06,07,05,56,5.20
2021,06,07,05,57,5.20
2021,06,07,05,58,5.30
2021,06,07,05,59,5.30
2021,06,07,06,00,5.30
2021,06,07,06,01,5.30
2021,06,07,06,02,5.30
2021,06,07,06,03,5.40
2021,06,07,06,04,5.40
2021,06,07,06,05,5.40
2021,06,07,06,06,5.50
2021,06,07,06,07,5.50
2021,06,07,06,08,5.50
2021,06,07,06,09,5.50
2021,06,07,06,10,5.50
2021,06,07,06,11,5.60
2021,06,07,06,12,5.60
2021,06,07,06,13,5.60
2021,06,07,06,14,5.70
2021,06,07,06,15,5.70
2021,06,07,06,16,5.70
2021,06,07,06,17,5.80
2021,06,07,06,18,5.80
2021,06,07,06,19,5.90
2021,06,07,06,20,5.90
2021,06,07,06,21,5.90
2021,06,07,06,22,6.00
2021,06,07,06,23,6.00
2021,06,07,06,24,6.00
2021,06,07,06,25,6.00
2021,06,07,06,26,6.00
2021,06,07,06,27,6.00
2021,06,07,06,28,6.00
2021,06,07,06,29,6.10
2021,06,07,06,30,6.10
2021,06,07,06,31,6.10
2021,06,07,06,32,6.10
2021,06,07,06,33,6.20
2021,06,07,06,34,6.20
2021,06,07,06,35,6.20
2021,06,07,06,36,6.20
2021,06,07,06,37,6.20
2021,06,07,06,38,6.30
2021,06,07,06,39,6.30
2021,06,07,06,40,6.30
2021,06,07,06,41,6.40
2021,06,07,06,42,6.40
2021,06,07,06,43,6.40
2021,06,07,06,44,6.40
2021,06,07,06,45,6.50
2021,06,07,06,46,6.60
2021,06,07,06,47,6.60
2021,06,07,06,48,6.60
2021,06,07,06,49,6.70
2021,06,07,06,50,6.70
2021,06,07,06,51,6.80
2021,06,07,06,52,6.80
2021,06,07,06,53,6.80
2021,06,07,06,54,6.90
2021,06,07,06,55,6.90
2021,06,07,06,56,6.90
2021,06,07,06,57,7.00
2021,06,07,06,58,7.00
2021,06,07,06,59,7.10
2021,06,07,07,00,7.10
2021,06,07,07,01,7.20
2021,06,07,07,02,7.30
2021,06,07,07,03,7.30
2021,06,07,07,04,7.40
2021,06,07,07,05,7.50
2021,06,07,07,06,7.60
2021,06,07,07,07,7.70
2021,06,07,07,08,7.80
2021,06,07,07,09,7.80
2021,06,07,07,10,7.90
2021,06,07,07,11,8.00
2021,06,07,07,12,8.10
2021,06,07,07,13,8.20
2021,06,07,07,14,8.30
2021,06,07,07,15,8.40
2021,06,07,07,16,8.50
2021,06,07,07,17,8.60
2021,06,07,07,18,8.70
2021,06,07,07,19,8.80
2021,06,07,07,20,8.70
2021,06,07,07,21,8.70
2021,06,07,07,22,8.80
2021,06,07,07,23,8.70
2021,06,07,07,24,8.80
2021,06,07,07,25,8.80
2021,06,07,07,26,8.80
2021,06,07,07,27,8.80
2021,06,07,07,28,8.80
2021,06,07,07,29,8.80
2021,06,07,07,30,8.80
2021,06,07,07,31,8.80
2021,06,07,07,32,8.70
2021,06,07,07,33,8.70
2021,06,07,07,34,8.70
2021,06,07,07,35,8.70
2021,06,07,07,36,8.70
2021,06,07,07,37,8.80
2021,06,07,07,38,8.80
2021,06,07,07,39,8.80
2021,06,07,07,40,8.90
2021,06,07,07,41,8.90
2021,06,07,07,42,9.00
2021,06,07,07,43,9.00
2021,06,07,07,44,9.10
2021,06,07,07,45,9.20
2021,06,07,07,46,9.20
2021,06,07,07,47,9.20
2021,06,07,07,48,9.30
2021,06,07,07,49,9.40
2021,06,07,07,50,9.40
2021,06,07,07,51,9.50
2021,06,07,07,52,9.60
2021,06,07,07,53,9.60
2021,06,07,07,54,9.60
2021,06,07,07,55,9.60
2021,06,07,07,56,9.70
2021,06,07,07,57,9.70
2021,06,07,07,58,9.80
2021,06,07,07,59,9.80
2021,06,07,08,00,9.80
2021,06,07,08,01,9.90
2021,06,07,08,02,9.90
2021,06,07,08,03,9.90
2021,06,07,08,04,10.00
2021,06,07,08,05,10.10
2021,06,07,08,06,10.10
2021,06,07,08,07,10.10
2021,06,07,08,08,10.10
2021,06,07,08,09,10.10
2021,06,07,08,10,10.20
2021,06,07,08,11,10.30
2021,06,07,08,12,10.30
2021,06,07,08,13,10.40
2021,06,07,08,14,10.40
2021,06,07,08,15,10.40
2021,06,07,08,16,10.50
2021,06,07,08,17,10.60
2021,06,07,08,18,10.60
2021,06,07,08,19,10.60
2021,06,07,08,20,10.60
2021,06,07,08,21,10.60
2021,06,07,08,22,10.60
2021,06,07,08,23,10.60
2021,06,07,08,24,10.60
2021,06,07,08,25,10.60
2021,06,07,08,26,10.50
2021,06,07,08,27,10.40
2021,06,07,08,28,10.50
2021,06,07,08,29,10.60
2021,06,07,08,30,10.60
2021,06,07,08,31,10.70
2021,06,07,08,32,10.70
2021,06,07,08,33,10.80
2021,06,07,08,34,10.80
2021,06,07,08,35,10.70
2021,06,07,08,36,10.70
2021,06,07,08,37,10.80
2021,06,07,08,38,10.90
2021,06,07,08,39,11.00
2021,06,07,08,40,11.10
2021,06,07,08,41,11.20
2021,06,07,08,42,11.30
2021,06,07,08,43,11.40
2021,06,07,08,44,11.40
2021,06,07,08,45,11.40
2021,06,07,08,46,11.20
2021,06,07,08,47,11.20
2021,06,07,08,48,11.20
2021,06,07,08,49,11.30
2021,06,07,08,50,11.30
2021,06,07,08,51,11.30
2021,06,07,08,52,11.30
2021,06,07,08,53,11.30
2021,06,07,08,54,11.30
2021,06,07,08,55,11.30
2021,06,07,08,56,11.20
2021,06,07,08,57,11.20
2021,06,07,08,58,11.20
2021,06,07,08,59,11.20
2021,06,07,09,00,11.20
2021,06,07,09,01,11.10
2021,06,07,09,02,11.10
2021,06,07,09,03,11.10
2021,06,07,09,04,11.10
2021,06,07,09,05,11.10
2021,06,07,09,06,11.10
2021,06,07,09,07,11.10
2021,06,07,09,08,11.10
2021,06,07,09,09,11.10
2021,06,07,09,10,11.10
2021,06,07,09,11,11.10
2021,06,07,09,12,11.10
2021,06,07,09,13,11.10
2021,06,07,09,14,11.10
2021,06,07,09,15,11.10
2021,06,07,09,16,11.20
2021,06,07,09,17,11.20
2021,06,07,09,18,11.20
2021,06,07,09,19,11.10
2021,06,07,09,20,11.10
2021,06,07,09,21,11.10
2021,06,07,09,22,11.10
2021,06,07,09,23,11.10
2021,06,07,09,24,11.00
2021,06,07,09,25,11.00
2021,06,07,09,26,11.10
2021,06,07,09,27,11.10
2021,06,07,09,28,11.10
2021,06,07,09,29,11.20
2021,06,07,09,30,11.30
2021,06,07,09,31,11.40
2021,06,07,09,32,11.40
2021,06,07,09,33,11.50
2021,06,07,09,34,11.60
2021,06,07,09,35,11.70
2021,06,07,09,36,11.80
2021,06,07,09,37,12.00
2021,06,07,09,38,12.10
2021,06,07,09,39,12.10
2021,06,07,09,40,12.10
2021,06,07,09,41,12.10
2021,06,07,09,42,12.10
2021,06,07,09,43,12.10
2021,06,07,09,44,12.10
2021,06,07,09,45,12.10
2021,06,07,09,46,12.20
2021,06,07,09,47,12.20
2021,06,07,09,48,12.30
2021,06,07,09,49,12.20
2021,06,07,09,50,12.20
2021,06,07,09,51,12.20
2021,06,07,09,52,12.10
2021,06,07,09,53,12.00
2021,06,07,09,54,11.90
2021,06,07,09,55,11.80
2021,06,07,09,56,11.80
2021,06,07,09,57,11.80
2021,06,07,09,58,11.90
2021,06,07,09,59,12.00
2021,06,07,10,00,12.00
2021,06,07,10,01,12.10
2021,06,07,10,02,12.10
2021,06,07,10,03,12.00
2021,06,07,10,04,12.00
2021,06,07,10,05,12.00
2021,06,07,10,06,12.10
2021,06,07,10,07,12.10
2021,06,07,10,08,12.20
2021,06,07,10,09,12.30
2021,06,07,10,10,12.30
2021,06,07,10,11,12.30
2021,06,07,10,12,12.40
2021,06,07,10,13,12.30
2021,06,07,10,14,12.30
2021,06,07,10,15,12.30
2021,06,07,10,16,12.30
2021,06,07,10,17,12.30
2021,06,07,10,18,12.40
2021,06,07,10,19,12.50
2021,06,07,10,20,12.60
2021,06,07,10,21,12.60
2021,06,07,10,22,12.50
2021,06,07,10,23,12.40
2021,06,07,10,24,12.50
2021,06,07,10,25,12.60
2021,06,07,10,26,12.70
2021,06,07,10,27,12.80
2021,06,07,10,28,12.90
2021,06,07,10,29,13.10
2021,06,07,10,30,13.30
2021,06,07,10,31,13.40
2021,06,07,10,32,13.50
2021,06,07,10,33,13.40
2021,06,07,10,34,13.40
2021,06,07,10,35,13.30
2021,06,07,10,36,13.30
2021,06,07,10,37,13.30
2021,06,07,10,38,13.40
2021,06,07,10,39,13.50
2021,06,07,10,40,13.50
2021,06,07,10,41,13.60
2021,06,07,10,42,13.50
2021,06,07,10,43,13.60
2021,06,07,10,44,13.60
2021,06,07,10,45,13.60
2021,06,07,10,46,13.60
2021,06,07,10,47,13.70
2021,06,07,10,48,13.70
2021,06,07,10,49,13.60
2021,06,07,10,50,13.60
2021,06,07,10,51,13.40
2021,06,07,10,52,13.20
2021,06,07,10,53,13.00
2021,06,07,10,54,12.90
2021,06,07,10,55,12.80
2021,06,07,10,56,12.70
2021,06,07,10,57,12.50
2021,06,07,10,58,12.40
2021,06,07,10,59,12.20
2021,06,07,11,00,12.00
2021,06,07,11,01,12.00
2021,06,07,11,02,12.00
2021,06,07,11,03,12.00
2021,06,07,11,04,11.90
2021,06,07,11,05,11.90
2021,06,07,11,06,11.90
2021,06,07,11,07,11.90
2021,06,07,11,08,12.00
2021,06,07,11,09,12.00
2021,06,07,11,10,12.00
2021,06,07,11,11,12.00
2021,06,07,11,12,12.00
2021,06,07,11,13,12.10
2021,06,07,11,14,12.10
2021,06,07,11,15,12.20
2021,06,07,11,16,12.00
2021,06,07,11,17,12.00
2021,06,07,11,18,11.90
2021,06,07,11,19,11.90
2021,06,07,11,20,11.90
2021,06,07,11,21,11.90
2021,06,07,11,22,11.90
2021,06,07,11,23,11.90
2021,06,07,11,24,11.80
2021,06,07,11,25,11.70
2021,06,07,11,26,11.60
2021,06,07,11,27,11.50
2021,06,07,11,28,11.60
2021,06,07,11,29,11.60
2021,06,07,11,30,11.60
2021,06,07,11,31,11.60
2021,06,07,11,32,11.40
2021,06,07,11,33,11.40
2021,06,07,11,34,11.40
2021,06,07,11,35,11.50
2021,06,07,11,36,11.60
2021,06,07,11,37,11.50
2021,06,07,11,38,11.40
2021,06,07,11,39,11.50
2021,06,07,11,40,11.40
2021,06,07,11,41,11.40
2021,06,07,11,42,11.40
2021,06,07,11,43,11.40
2021,06,07,11,44,11.40
2021,06,07,11,45,11.40
2021,06,07,11,46,11.40
2021,06,07,11,47,11.60
2021,06,07,11,48,11.60
2021,06,07,11,49,11.70
2021,06,07,11,50,11.70
2021,06,07,11,51,11.80
2021,06,07,11,52,11.70
2021,06,07,11,53,11.80
2021,06,07,11,54,11.80
2021,06,07,11,55,11.80
2021,06,07,11,56,11.90
2021,06,07,11,57,11.90
2021,06,07,11,58,11.90
2021,06,07,11,59,11.90
2021,06,07,12,00,12.00
2021,06,07,12,01,12.00
2021,06,07,12,02,12.00
2021,06,07,12,03,12.00
2021,06,07,12,04,12.20
2021,06,07,12,05,12.40
2021,06,07,12,06,12.40
2021,06,07,12,07,12.40
2021,06,07,12,08,12.50
2021,06,07,12,09,12.60
2021,06,07,12,10,12.60
2021,06,07,12,11,12.70
2021,06,07,12,12,12.90
2021,06,07,12,13,13.00
2021,06,07,12,14,12.90
2021,06,07,12,15,12.80
2021,06,07,12,16,12.80
2021,06,07,12,17,12.80
2021,06,07,12,18,12.70
2021,06,07,12,19,12.60
2021,06,07,12,20,12.70
2021,06,07,12,21,12.80
2021,06,07,12,22,12.90
2021,06,07,12,23,12.90
2021,06,07,12,24,13.00
2021,06,07,12,25,12.90
2021,06,07,12,26,12.70
2021,06,07,12,27,12.50
2021,06,07,12,28,12.30
2021,06,07,12,29,12.20
2021,06,07,12,30,12.10
2021,06,07,12,31,12.00
2021,06,07,12,32,12.10
2021,06,07,12,33,12.20
2021,06,07,12,34,12.30
2021,06,07,12,35,12.40
2021,06,07,12,36,12.50
2021,06,07,12,37,12.60
2021,06,07,12,38,12.70
2021,06,07,12,39,12.60
2021,06,07,12,40,12.40
2021,06,07,12,41,12.30
2021,06,07,12,42,12.40
2021,06,07,12,43,12.50
2021,06,07,12,44,12.50
2021,06,07,12,45,12.40
2021,06,07,12,46,12.30
2021,06,07,12,47,12.20
2021,06,07,12,48,12.20
2021,06,07,12,49,12.30
2021,06,07,12,50,12.30
2021,06,07,12,51,12.30
2021,06,07,12,52,12.30
2021,06,07,12,53,12.30
2021,06,07,12,54,12.40
2021,06,07,12,55,12.50
2021,06,07,12,56,12.50
2021,06,07,12,57,12.60
2021,06,07,12,58,12.70
2021,06,07,12,59,12.90
2021,06,07,13,00,12.90
2021,06,07,13,01,12.90
2021,06,07,13,02,13.00
2021,06,07,13,03,13.10
2021,06,07,13,04,13.00
2021,06,07,13,05,13.10
2021,06,07,13,06,13.30
2021,06,07,13,07,13.50
2021,06,07,13,08,13.60
2021,06,07,13,09,13.70
2021,06,07,13,10,13.60
2021,06,07,13,11,13.50
2021,06,07,13,12,13.40
2021,06,07,13,13,13.50
2021,06,07,13,14,13.50
2021,06,07,13,15,13.60
2021,06,07,13,16,13.70
2021,06,07,13,17,13.60
2021,06,07,13,18,13.50
2021,06,07,13,19,13.40
2021,06,07,13,20,13.20
2021,06,07,13,21,13.10
2021,06,07,13,22,13.20
2021,06,07,13,23,13.20
2021,06,07,13,24,13.10
2021,06,07,13,25,13.10
2021,06,07,13,26,13.10
2021,06,07,13,27,13.10
2021,06,07,13,28,13.20
2021,06,07,13,29,13.20
2021,06,07,13,30,13.20
2021,06,07,13,31,13.30
2021,06,07,13,32,13.30
2021,06,07,13,33,13.40
2021,06,07,13,34,13.50
2021,06,07,13,35,13.50
2021,06,07,13,36,13.50
2021,06,07,13,37,13.60
2021,06,07,13,38,13.60
2021,06,07,13,39,13.70
2021,06,07,13,40,13.70
2021,06,07,13,41,13.80
2021,06,07,13,42,13.80
2021,06,07,13,43,13.70
2021,06,07,13,44,13.70
2021,06,07,13,45,13.70
2021,06,07,13,46,13.70
2021,06,07,13,47,13.70
2021,06,07,13,48,13.70
2021,06,07,13,49,13.60
2021,06,07,13,50,13.80
2021,06,07,13,51,14.00
2021,06,07,13,52,14.10
2021,06,07,13,53,14.00
2021,06,07,13,54,14.10
2021,06,07,13,55,14.10
2021,06,07,13,56,14.20
2021,06,07,13,57,14.20
2021,06,07,13,58,14.20
2021,06,07,13,59,14.20
2021,06,07,14,00,14.00
2021,06,07,14,01,14.00
2021,06,07,14,02,13.90
2021,06,07,14,03,13.70
2021,06,07,14,04,13.70
2021,06,07,14,05,13.80
2021,06,07,14,06,14.00
2021,06,07,14,07,14.10
2021,06,07,14,08,14.10
2021,06,07,14,09,14.20
2021,06,07,14,10,14.10
2021,06,07,14,11,14.20
2021,06,07,14,12,14.20
2021,06,07,14,13,14.10
2021,06,07,14,14,13.90
2021,06,07,14,15,13.90
2021,06,07,14,16,13.70
2021,06,07,14,17,13.70
2021,06,07,14,18,13.60
2021,06,07,14,19,13.40
2021,06,07,14,20,13.30
2021,06,07,14,21,13.20
2021,06,07,14,22,13.00
2021,06,07,14,23,13.00
2021,06,07,14,24,13.00
2021,06,07,14,25,13.10
2021,06,07,14,26,13.20
2021,06,07,14,27,13.40
2021,06,07,14,28,13.60
2021,06,07,14,29,13.70
2021,06,07,14,30,13.70
2021,06,07,14,31,13.70
2021,06,07,14,32,13.80
2021,06,07,14,33,13.90
2021,06,07,14,34,14.00
2021,06,07,14,35,14.20
2021,06,07,14,36,14.20
2021,06,07,14,37,14.20
2021,06,07,14,38,14.20
2021,06,07,14,39,14.20
2021,06,07,14,40,14.20
2021,06,07,14,41,14.20
2021,06,07,14,42,14.20
2021,06,07,14,43,14.20
2021,06,07,14,44,14.30
2021,06,07,14,45,14.40
2021,06,07,14,46,14.50
2021,06,07,14,47,14.40
2021,06,07,14,48,14.10
2021,06,07,14,49,14.00
2021,06,07,14,50,14.00
2021,06,07,14,51,14.10
2021,06,07,14,52,14.10
2021,06,07,14,53,14.10
2021,06,07,14,54,14.20
2021,06,07,14,55,14.20
2021,06,07,14,56,14.40
2021,06,07,14,57,14.60
2021,06,07,14,58,14.60
2021,06,07,14,59,14.60
2021,06,07,15,00,14.70
2021,06,07,15,01,14.70
2021,06,07,15,02,14.90
2021,06,07,15,03,14.90
2021,06,07,15,04,15.00
2021,06,07,15,05,15.10
2021,06,07,15,06,15.20
2021,06,07,15,07,15.30
2021,06,07,15,08,15.00
2021,06,07,15,09,14.80
2021,06,07,15,10,14.50
2021,06,07,15,11,14.40
2021,06,07,15,12,14.40
2021,06,07,15,13,14.40
2021,06,07,15,14,14.20
2021,06,07,15,15,14.20
2021,06,07,15,16,14.10
2021,06,07,15,17,14.00
2021,06,07,15,18,14.00
2021,06,07,15,19,13.90
2021,06,07,15,20,14.00
2021,06,07,15,21,14.00
2021,06,07,15,22,14.00
2021,06,07,15,23,14.00
2021,06,07,15,24,14.10
2021,06,07,15,25,14.20
2021,06,07,15,26,14.20
2021,06,07,15,27,14.20
2021,06,07,15,28,14.30
2021,06,07,15,29,14.40
2021,06,07,15,30,14.40
2021,06,07,15,31,14.50
2021,06,07,15,32,14.60
2021,06,07,15,33,14.70
2021,06,07,15,34,14.70
2021,06,07,15,35,14.70
2021,06,07,15,36,14.80
2021,06,07,15,37,14.80
2021,06,07,15,38,14.80
2021,06,07,15,39,15.00
2021,06,07,15,40,15.10
2021,06,07,15,41,15.20
2021,06,07,15,42,15.30
2021,06,07,15,43,15.30
2021,06,07,15,44,15.30
2021,06,07,15,45,15.30
2021,06,07,15,46,15.40
2021,06,07,15,47,15.40
2021,06,07,15,48,15.30
2021,06,07,15,49,15.20
2021,06,07,15,50,15.10
2021,06,07,15,51,15.10
2021,06,07,15,52,15.20
2021,06,07,15,53,15.20
2021,06,07,15,54,15.10
2021,06,07,15,55,15.00
2021,06,07,15,56,15.10
2021,06,07,15,57,15.20
2021,06,07,15,58,15.20
2021,06,07,15,59,15.10
2021,06,07,16,00,15.00
2021,06,07,16,01,15.00
2021,06,07,16,02,15.10
2021,06,07,16,03,15.10
2021,06,07,16,04,15.10
2021,06,07,16,05,15.10
2021,06,07,16,06,15.10
2021,06,07,16,07,15.10
2021,06,07,16,08,15.10
2021,06,07,16,09,15.00
2021,06,07,16,10,14.90
2021,06,07,16,11,15.00
2021,06,07,16,12,15.10
2021,06,07,16,13,15.20
2021,06,07,16,14,15.30
2021,06,07,16,15,15.30
2021,06,07,16,16,15.40
2021,06,07,16,17,15.40
2021,06,07,16,18,15.30
2021,06,07,16,19,15.20
2021,06,07,16,20,15.20
2021,06,07,16,21,15.20
2021,06,07,16,22,15.20
2021,06,07,16,23,15.10
2021,06,07,16,24,14.90
2021,06,07,16,25,15.00
2021,06,07,16,26,15.10
2021,06,07,16,27,15.20
2021,06,07,16,28,15.30
2021,06,07,16,29,15.30
2021,06,07,16,30,15.40
2021,06,07,16,31,15.50
2021,06,07,16,32,15.60
2021,06,07,16,33,15.70
2021,06,07,16,34,15.70
2021,06,07,16,35,15.80
2021,06,07,16,36,15.80
2021,06,07,16,37,15.80
2021,06,07,16,38,15.80
2021,06,07,16,39,15.60
2021,06,07,16,40,15.50
2021,06,07,16,41,15.50
2021,06,07,16,42,15.60
2021,06,07,16,43,15.60
2021,06,07,16,44,15.70
2021,06,07,16,45,15.60
2021,06,07,16,46,15.60
2021,06,07,16,47,15.50
2021,06,07,16,48,15.40
2021,06,07,16,49,15.40
2021,06,07,16,50,15.30
2021,06,07,16,51,15.30
2021,06,07,16,52,15.40
2021,06,07,16,53,15.30
2021,06,07,16,54,15.30
2021,06,07,16,55,15.30
2021,06,07,16,56,15.30
2021,06,07,16,57,15.20
2021,06,07,16,58,15.10
2021,06,07,16,59,15.10
2021,06,07,17,00,15.10
2021,06,07,17,01,15.10
2021,06,07,17,02,15.20
2021,06,07,17,03,15.20
2021,06,07,17,04,15.20
2021,06,07,17,05,15.30
2021,06,07,17,06,15.30
2021,06,07,17,07,15.50
2021,06,07,17,08,15.60
2021,06,07,17,09,15.60
2021,06,07,17,10,15.80
2021,06,07,17,11,15.80
2021,06,07,17,12,15.80
2021,06,07,17,13,15.80
2021,06,07,17,14,15.80
2021,06,07,17,15,15.80
2021,06,07,17,16,15.80
2021,06,07,17,17,15.60
2021,06,07,17,18,15.40
2021,06,07,17,19,15.20
2021,06,07,17,20,14.90
2021,06,07,17,21,14.80
2021,06,07,17,22,14.80
2021,06,07,17,23,15.00
2021,06,07,17,24,15.20
2021,06,07,17,25,15.10
2021,06,07,17,26,15.00
2021,06,07,17,27,14.80
2021,06,07,17,28,14.90
2021,06,07,17,29,14.90
2021,06,07,17,30,15.00
2021,06,07,17,31,15.00
2021,06,07,17,32,15.00
2021,06,07,17,33,15.00
2021,06,07,17,34,15.00
2021,06,07,17,35,14.90
2021,06,07,17,36,14.90
2021,06,07,17,37,14.90
2021,06,07,17,38,15.00
2021,06,07,17,39,15.10
2021,06,07,17,40,15.20